Regional Weather Roundup
Issued by NWS Little Rock, AR

Home | Current Version | Previous Version | Graphics & Text | Print | Product List | Glossary On
Versions: 1 2 3 4 5 6 7 8 9 10 11 12 13 14 15 16 17 18 19 20 21 22 23 24 25 26 27 28 29 30 31 32 33 34 35 36 37 38 39 40 41 42 43 44 45 46 47 48 49 50
000
ASUS44 KLZK 242105
RWRLZK

WEATHER ROUNDUP FOR ARKANSAS
NATIONAL WEATHER SERVICE LITTLE ROCK AR
400 PM CDT THU JUL 24 2014

NOTE: "FAIR" INDICATES FEW OR NO CLOUDS BELOW 12,000 FEET WITH NO
SIGNIFICANT WEATHER AND/OR OBSTRUCTIONS TO VISIBILITY.

ARZ001-003-010-029-242200-
NORTHWEST ARKANSAS

CITY           SKY/WX    TMP DP  RH WIND       PRES   REMARKS
FAYETTEVILLE   PTSUNNY   82  68  62 VRB3      30.07F HX  85
FORT SMITH     MOSUNNY   86  71  60 E6        30.03F HX  91
HARRISON       SUNNY     81  62  52 VRB5      30.09F
BENTONVILLE    PTSUNNY   86  68  54 SW3       30.08F HX  89
ROGERS         SUNNY     86  59  39 E8        30.08F HX  85
SILOAM SPGS    MOSUNNY   84  66  54 S8        30.08F HX  86
HIGHFILL       MOSUNNY   85  69  58 S9        30.07F HX  89
SPRINGDALE     PTSUNNY   84  68  58 S3        30.09F HX  87
$$

ARZ004-005-016-242200-
NORTH CENTRAL ARKANSAS

CITY           SKY/WX    TMP DP  RH WIND       PRES   REMARKS
BATESVILLE     SUNNY     82  61  47 N5        30.05F
FLIPPIN        SUNNY     82  61  47 N3        30.08S
MTN HOME       SUNNY     81  59  47 NE8       30.07F
$$

ARZ040-041-242200-
WEST CENTRAL ARKANSAS

CITY           SKY/WX    TMP DP  RH WIND       PRES   REMARKS
MENA           PTSUNNY   88  73  62 CALM      30.06S HX  96
MOUNT IDA      PTSUNNY   84  71  65 VRB5      30.04F HX  89
$$

ARZ009-017-025-026-028-242200-
NORTHEAST ARKANSAS

CITY           SKY/WX    TMP DP  RH WIND       PRES   REMARKS
CORNING          N/A     82  55  39 NE12      30.05F
JONESBORO      SUNNY     80  57  45 E12G17    30.04F
NEWPORT        SUNNY     80  63  56 NE8       30.05F
WALNUT RIDGE   SUNNY     81  61  50 NE9       30.04F
BLYTHEVILLE    MOSUNNY   80  65  59 N10       30.04F
$$

ARZ022-023-033-042-044-242200-
CENTRAL ARKANSAS

CITY           SKY/WX    TMP DP  RH WIND       PRES   REMARKS
LITTLE ROCK    PTSUNNY   84  65  52 E6        30.04F HX  86
N LITTLE ROCK  PTSUNNY   82  71  68 NE5       30.04F HX  86
JACKSONVILLE   SUNNY     84  66  54 W5        30.04F HX  86
SEARCY         SUNNY     83  66  56 N7        30.05F HX  85
HOT SPRINGS    MOSUNNY   83  71  67 VRB5      30.05S HX  87
RUSSELLVILLE   PTSUNNY   85  71  63 CALM      30.04F HX  90
CLINTON        FAIR      84  68  58 CALM      30.05F HX  87
$$

ARZ036-242200-
EAST ARKANSAS

CITY           SKY/WX    TMP DP  RH WIND       PRES   REMARKS
WEST MEMPHIS   SUNNY     82  59  45 N13G20    30.02F
$$

ARZ050-053-066-070-073-242200-
SOUTHWEST ARKANSAS

CITY           SKY/WX    TMP DP  RH WIND       PRES   REMARKS
ARKADELPHIA    MOCLDY    83  72  69 CALM      30.04F HX  88
CAMDEN         MOSUNNY   86  70  58 N5        30.02F HX  90
TEXARKANA      CLOUDY    79  71  76 CALM      30.04F
EL DORADO      MOSUNNY   88  72  58 N5        30.01F HX  94
DE QUEEN       PTSUNNY   86  72  62 SE8       30.01F HX  92
$$

ARZ056-057-069-242200-
SOUTHEAST ARKANSAS

CITY           SKY/WX    TMP DP  RH WIND       PRES   REMARKS
PINE BLUFF     CLOUDY    80  70  71 N7        30.04F
STUTTGART      SUNNY     82  66  57 N8        30.05S HX  85
MONTICELLO     MOSUNNY   85  72  65 N6G16     30.01F HX  91

$$




USA.gov is the U.S. government's official web portal to all federal, state and local government web resources and services.